sat.trackr.live / text

‹ back to catalog

STARLINK-33627

NORAD 63068 · 2025-035S

PAYLOAD ACTIVE UNKNOWN

§ Identity

Operator
Country
US
Launch date
2025-02-21
Launch site
AFETR
Launch vehicle
Mass (kg)
RCS (m²)

Purposes: comms

External: N2YO · Heavens-Above · Gunter

§ Orbital elements

Epoch: 2026-09-19T23:40:29.430336Z

Period
94.27 min
Inclination
42.9984°
Eccentricity
0.0000873
Mean motion
15.27593384 rev/d
Perigee alt
482.4 km
Apogee alt
483.6 km
Semi-major
6,861.1 km
B*
5.3575e-4
RAAN
129.8966°
Arg perigee
305.3340°
Mean anomaly
54.7430°
Rev number
8,943

§ Raw data

STARLINK-336271 63068U 25035S   26262.98645174  .00014516  00000+0  53575-3 0  99942 63068  42.9984 129.8966 0000873 305.3340  54.7430 15.27593384 89432

JSON: /api/v1/satellites/63068 · /tle

For live sub-satellite position, see the globe view (requires WebGL).

§ Visibility from observer

Set your observer location to see the next 7 days of passes ≥ 10°. The values pass through the URL so the page stays shareable.

No JS? Fill the form by hand. The geolocation button needs JavaScript.